Date,TemperatureHighF,TemperatureAvgF,TemperatureLowF,DewpointHighF,DewpointAvgF,DewpointLowF,HumidityHigh,HumidityAvg,HumidityLow,PressureMaxIn,PressureMinIn,WindSpeedMaxMPH,WindSpeedAvgMPH,GustSpeedMaxMPH,PrecipitationSumIn
2013-1-1,35,28,17,32,24,16,94,82,63,0.00,40.00,6,1,14,0.00
2013-1-2,22,11,0,21,8,-2,94,83,63,0.00,40.00,4,1,4,1.14
2013-1-3,32,21,4,28,15,0,85,72,54,0.00,40.00,14,7,17,0.00
2013-1-4,31,23,14,25,18,12,86,76,66,0.00,40.00,16,8,21,0.00
2013-1-5,39,29,16,32,24,16,91,81,66,0.00,40.00,12,6,14,0.00
2013-1-6,40,33,25,34,29,21,90,82,75,0.00,40.00,14,9,21,0.00
2013-1-7,36,28,17,30,25,16,95,84,71,0.00,40.00,14,5,17,0.00
2013-1-8,41,30,20,32,25,18,93,80,64,0.00,40.00,9,4,12,0.00
2013-1-9,45,40,25,39,33,25,93,78,67,0.00,40.00,15,8,17,7.36
2013-1-10,44,35,27,34,31,27,97,82,67,0.00,40.00,11,2,14,0.00
2013-1-11,62,51,38,55,46,34,97,84,73,0.00,40.00,17,9,21,4.53
2013-1-12,63,57,51,57,51,45,97,86,72,0.00,40.00,14,6,15,5.67
2013-1-13,62,44,29,59,42,27,99,95,88,0.00,40.00,12,4,21,7.39
2013-1-14,32,24,20,30,20,16,89,82,71,0.00,40.00,14,4,17,0.00
2013-1-15,34,27,21,27,21,18,88,75,62,0.00,40.00,9,4,12,0.00
2013-1-16,36,31,27,30,26,23,93,78,59,0.00,40.00,12,4,15,0.00
2013-1-17,41,33,23,32,26,16,89,74,54,0.00,40.00,11,4,15,0.00
2013-1-18,42,31,21,30,22,18,85,68,47,0.00,40.00,22,8,26,0.00
2013-1-19,53,44,38,36,29,23,68,55,47,0.00,40.00,19,12,26,0.00
2013-1-20,46,29,22,36,18,12,72,61,44,0.00,40.00,22,7,26,0.00
2013-1-21,26,17,9,19,8,-2,86,64,47,0.00,40.00,14,6,21,1.14
2013-1-22,15,10,4,3,0,-4,78,60,47,0.00,40.00,9,5,15,0.00
2013-1-23,23,16,8,19,7,0,88,65,41,0.00,40.00,5,2,8,2.28
2013-1-24,24,17,9,19,10,3,91,69,51,0.00,40.00,4,1,6,2.83
2013-1-25,29,22,17,23,17,9,91,78,64,0.00,40.00,6,2,8,5.67
2013-1-26,31,26,13,25,20,12,90,76,55,0.00,40.00,5,1,6,1.14
2013-1-27,36,26,11,32,21,10,94,81,68,0.00,40.00,7,1,12,5.11
2013-1-28,54,46,34,50,43,32,98,93,86,0.00,40.00,17,9,21,0.00
2013-1-29,63,58,50,57,53,48,99,88,80,0.00,40.00,20,13,24,0.00
2013-1-30,66,51,32,57,47,30,99,88,75,0.00,40.00,25,12,32,5.11
2013-1-31,32,23,13,32,18,5,93,77,64,0.00,40.00,22,12,34,0.00
2013-2-1,18,12,6,10,5,0,80,72,63,0.00,40.00,16,9,21,1.14
2013-2-2,29,22,14,28,19,7,94,85,71,0.00,40.00,12,4,14,10.78
2013-2-3,23,19,12,21,16,9,91,83,66,0.00,40.00,11,3,14,6.25
2013-2-4,34,25,13,30,22,10,95,84,69,0.00,40.00,3,0,10,0.00
2013-2-5,37,27,13,32,25,12,97,86,68,0.00,40.00,7,2,10,4.53
2013-2-6,37,32,29,32,25,19,85,73,53,0.00,40.00,5,0,8,0.00
2013-2-7,51,39,29,39,31,25,88,76,59,0.00,40.00,11,1,14,3.97
2013-2-8,43,35,25,41,31,23,95,85,73,0.00,40.00,11,4,14,2.28
2013-2-9,39,30,23,28,24,19,95,76,56,0.00,40.00,5,0,8,0.00
2013-2-10,51,41,30,45,32,25,93,70,58,0.00,40.00,22,7,26,0.00
2013-2-11,53,41,33,48,34,27,93,76,60,0.00,40.00,22,14,32,0.00
2013-2-12,46,35,30,34,28,25,88,75,58,0.00,40.00,11,3,21,0.00
2013-2-13,40,33,28,32,28,25,89,80,62,0.00,40.00,5,0,6,0.00
2013-2-14,49,39,34,39,33,30,93,80,64,0.00,40.00,17,8,21,0.00
2013-2-15,38,32,23,32,28,18,94,81,67,0.00,40.00,11,0,17,3.97
2013-2-16,28,23,17,25,18,9,93,77,58,0.00,40.00,9,2,17,2.28
2013-2-17,32,22,15,18,12,7,85,67,41,0.00,40.00,2,0,15,0.00
2013-2-18,55,39,23,43,27,12,84,60,51,0.00,40.00,23,12,30,1.14
2013-2-19,48,29,18,43,24,14,98,82,71,0.00,40.00,29,15,37,17.59
2013-2-20,26,20,13,19,14,9,86,75,67,0.00,40.00,14,9,26,2.28
2013-2-21,29,25,21,23,19,16,82,75,69,0.00,40.00,15,5,17,0.00
2013-2-22,39,33,25,36,30,23,97,89,77,0.00,40.00,13,6,17,4.53
2013-2-23,38,32,28,32,27,23,94,78,62,0.00,40.00,11,7,14,0.00
2013-2-24,41,32,26,28,24,19,91,71,49,0.00,40.00,8,4,12,0.00
2013-2-25,45,34,21,32,26,21,95,75,50,0.00,40.00,9,4,12,0.00
2013-2-26,39,34,31,37,31,27,97,87,73,0.00,40.00,14,8,17,6.80
2013-2-27,39,36,32,34,32,32,99,91,82,0.00,40.00,12,8,17,11.91
2013-2-28,41,35,32,36,33,30,99,92,84,0.00,40.00,12,6,14,9.64
2013-3-1,37,32,27,36,29,21,97,85,71,0.00,40.00,8,4,12,0.00
2013-3-2,32,29,26,27,22,19,84,75,64,0.00,40.00,6,3,10,0.00
2013-3-3,34,29,25,27,20,18,91,67,51,0.00,40.00,9,4,12,1.14
2013-3-4,39,30,17,32,22,16,94,70,41,0.00,40.00,4,1,8,1.14
2013-3-5,37,33,28,32,31,27,97,90,75,0.00,40.00,13,7,17,6.25
2013-3-6,37,32,27,32,28,27,98,83,67,0.00,40.00,8,4,14,0.00
2013-3-7,42,36,31,34,29,23,94,76,53,0.00,40.00,6,2,8,0.00
2013-3-8,41,31,17,28,24,16,94,72,47,0.00,40.00,5,1,6,0.00
2013-3-9,46,36,23,37,30,21,95,78,62,0.00,40.00,7,3,10,0.00
2013-3-10,63,53,44,43,38,34,72,59,47,0.00,40.00,19,8,24,0.00
2013-3-11,60,50,36,50,43,32,94,81,55,0.00,40.00,22,15,24,0.00
2013-3-12,41,36,32,34,31,27,97,82,64,0.00,40.00,16,10,21,0.00
2013-3-13,36,30,27,32,23,19,90,72,59,0.00,40.00,16,9,21,0.00
2013-3-14,42,32,21,28,22,18,88,66,44,0.00,40.00,9,4,12,0.00
2013-3-15,50,40,31,43,34,27,95,82,63,0.00,40.00,8,3,10,2.83
2013-3-16,46,39,32,41,36,28,98,92,82,0.00,40.00,11,4,14,4.53
2013-3-17,37,33,29,32,27,21,86,75,63,0.00,40.00,11,6,14,0.00
2013-3-18,42,36,30,39,33,25,95,92,78,0.00,40.00,15,7,19,5.11
2013-3-19,39,32,26,34,22,18,89,66,47,0.00,40.00,24,17,26,0.00
2013-3-20,35,29,24,23,17,9,76,58,44,0.00,40.00,16,10,21,0.00
2013-3-21,33,25,17,23,18,12,88,70,46,0.00,40.00,11,5,17,0.00
2013-3-22,45,31,20,25,20,16,86,63,32,0.00,40.00,8,3,14,0.00
2013-3-23,47,36,26,30,24,18,85,62,32,0.00,40.00,7,2,10,0.00
2013-3-24,38,32,29,32,27,23,95,77,58,0.00,40.00,22,10,28,5.67
2013-3-25,37,34,29,34,32,28,99,93,84,0.00,40.00,11,5,28,18.69
2013-3-26,41,36,32,34,30,25,94,77,59,0.00,40.00,9,5,12,5.66
2013-3-27,43,35,28,32,29,27,89,77,60,0.00,40.00,11,6,17,0.00
2013-3-28,48,37,26,32,27,21,88,66,41,0.00,40.00,8,4,12,0.00
2013-3-29,53,41,29,37,31,27,91,69,40,0.00,40.00,7,2,10,0.00
2013-3-30,57,44,28,39,32,27,94,67,34,0.00,40.00,9,3,14,0.00
2013-3-31,63,50,40,46,38,-100,90,71,41,0.00,40.00,16,6,19,0.00
2013-4-1,51,38,30,39,24,16,81,58,33,0.00,40.00,12,5,19,0.00
2013-4-2,45,34,24,25,20,12,85,57,27,0.00,40.00,11,3,14,0.00
2013-4-3,48,35,21,23,18,10,85,51,23,0.00,40.00,8,2,14,0.00
2013-4-4,60,40,29,25,19,14,68,45,18,0.00,40.00,8,2,10,0.00
2013-4-8,76,70,64,61,54,48,86,61,51,0.00,40.00,24,13,24,1.14
2013-4-9,81,68,53,61,53,46,91,65,36,0.00,40.00,22,7,32,0.00
2013-4-10,84,68,48,66,59,46,98,79,53,0.00,40.00,14,8,21,11.34
2013-4-11,57,52,47,54,50,45,98,95,90,0.00,40.00,11,6,15,10.78
2013-4-12,50,43,39,48,37,30,98,81,64,0.00,40.00,16,10,19,4.53
2013-4-13,45,42,38,37,34,32,88,75,59,0.00,40.00,17,9,22,0.00
2013-4-14,66,52,38,48,39,32,89,66,47,0.00,40.00,11,4,14,0.00
2013-4-15,70,62,52,57,50,41,85,67,56,0.00,40.00,17,10,21,0.00
2013-4-16,66,57,52,55,51,48,98,85,69,0.00,40.00,11,3,15,13.03
2013-4-17,69,56,48,63,51,43,94,86,77,0.00,40.00,11,5,14,0.00
2013-4-18,80,66,51,64,58,43,94,80,54,0.00,40.00,31,11,37,0.00
2013-4-19,71,45,35,61,38,30,97,80,60,0.00,40.00,22,14,28,3.97
2013-4-20,47,39,34,34,29,23,90,66,41,0.00,40.00,14,8,17,0.00
2013-4-21,53,41,29,34,26,21,81,55,34,0.00,40.00,8,4,14,0.00
2013-4-22,68,51,33,43,33,30,90,56,27,0.00,40.00,7,3,10,0.00
2013-4-23,71,60,48,59,46,36,93,64,38,0.00,40.00,17,7,21,0.00
2013-4-24,63,47,37,57,42,32,98,86,62,0.00,40.00,17,6,22,12.47
2013-4-25,54,44,35,39,33,27,90,69,37,0.00,40.00,17,8,26,0.00
2013-4-26,61,48,31,41,33,30,94,62,33,0.00,40.00,12,3,102,0.00
2013-4-27,70,56,38,48,38,32,94,59,28,0.00,40.00,12,4,14,0.00
2013-4-28,64,58,54,59,53,-100,97,87,69,0.00,40.00,11,4,14,1.14
2013-4-29,69,62,56,57,55,54,97,83,62,0.00,40.00,9,4,14,0.00
2013-4-30,78,65,52,61,54,48,93,72,44,0.00,40.00,12,7,14,0.00
2013-5-1,84,71,54,59,53,50,86,60,34,0.00,40.00,8,2,12,0.00
2013-5-2,76,70,62,57,54,50,75,60,45,0.00,40.00,11,4,14,0.00
2013-5-3,79,69,61,57,52,39,78,58,36,0.00,40.00,13,5,17,0.00
2013-5-4,74,66,59,52,43,36,66,46,27,0.00,40.00,12,5,17,0.00
2013-5-5,71,64,56,54,45,39,69,52,34,0.00,40.00,11,4,14,0.00
2013-5-6,71,64,56,55,49,41,86,61,47,0.00,40.00,9,4,14,1.14
2013-5-7,75,66,55,61,54,50,94,71,46,0.00,40.00,11,3,14,0.00
2013-5-8,80,65,52,63,54,48,95,73,36,0.00,40.00,12,2,22,0.00
2013-5-9,80,68,53,61,54,46,95,68,33,0.00,40.00,11,2,17,0.00
2013-5-10,71,63,54,64,56,-100,94,84,71,0.00,40.00,11,6,17,4.53
2013-5-11,61,51,43,50,45,36,93,83,67,0.00,40.00,16,5,21,0.00
2013-5-12,54,46,37,39,32,-100,91,63,34,0.00,40.00,12,5,19,0.00
2013-5-13,62,49,36,39,31,23,91,56,24,0.00,40.00,8,2,14,0.00
2013-5-14,85,66,42,61,44,34,85,49,33,0.00,40.00,22,9,30,0.00
2013-5-15,91,79,72,61,56,46,66,47,27,0.00,40.00,19,10,26,0.00
2013-5-16,83,66,59,64,33,-100,95,59,25,0.00,40.00,10,1,14,0.00
2013-5-17,85,68,55,64,52,-100,97,73,29,0.00,40.00,12,3,14,4.53
2013-5-18,81,68,58,64,57,46,94,70,51,0.00,40.00,5,1,8,0.00
2013-5-19,87,74,58,66,59,52,88,63,40,0.00,40.00,8,3,12,0.00
2013-5-20,91,82,72,68,64,59,81,58,38,0.00,40.00,19,9,22,0.00
2013-5-21,78,75,73,68,65,64,77,75,71,0.00,40.00,6,6,12,0.00
2013-5-22,80,73,67,64,60,55,85,69,46,0.00,40.00,22,12,26,0.00
2013-5-23,69,62,52,63,55,43,93,82,67,0.00,40.00,12,6,19,0.00
2013-5-24,67,55,47,48,39,32,91,60,29,0.00,40.00,9,3,12,0.00
2013-5-25,71,57,43,43,36,28,89,52,22,0.00,40.00,5,1,8,0.00
2013-5-26,72,61,46,45,38,34,84,48,28,0.00,40.00,8,2,12,0.00
2013-5-27,74,62,49,64,50,32,97,71,34,0.00,40.00,14,5,19,11.33
2013-5-28,83,74,63,70,64,61,95,75,54,0.00,40.00,21,8,22,0.00
2013-5-29,88,78,70,64,60,57,75,57,37,0.00,40.00,15,9,17,0.00
2013-5-30,93,80,71,68,64,59,84,60,38,0.00,40.00,19,10,24,0.00
2013-5-31,80,75,70,72,66,63,90,77,63,0.00,40.00,19,11,24,4.53
2013-6-1,80,73,65,68,65,63,95,80,62,0.00,40.00,16,7,19,0.00
2013-6-2,75,68,58,66,58,-100,85,76,59,0.00,40.00,13,7,17,0.00
2013-6-3,71,59,51,52,44,36,85,63,29,0.00,40.00,9,2,12,0.00
2013-6-4,76,64,49,52,45,39,93,57,29,0.00,40.00,9,3,12,0.00
2013-6-5,81,68,54,54,46,43,73,48,29,0.00,40.00,13,5,17,0.00
2013-6-6,74,65,61,59,52,45,84,65,51,0.00,40.00,9,5,17,0.00
2013-6-7,76,64,56,57,54,50,94,73,46,0.00,40.00,8,4,12,0.00
2013-6-8,79,66,50,55,51,46,94,63,34,0.00,40.00,7,2,10,0.00
2013-6-9,86,74,65,68,59,48,93,64,31,0.00,40.00,15,4,19,1.14
2013-6-10,80,73,67,68,63,55,95,75,46,0.00,40.00,11,6,14,6.81
2013-6-11,87,74,63,68,62,55,94,72,36,0.00,40.00,11,4,15,0.00
2013-6-12,93,79,66,72,67,63,93,72,44,0.00,40.00,19,4,30,0.00
2013-6-13,84,72,65,70,60,50,98,72,38,0.00,40.00,19,5,30,2.83
2013-6-14,82,69,58,64,57,52,94,69,41,0.00,40.00,6,2,12,0.00
2013-6-15,81,70,59,68,59,54,89,73,47,0.00,40.00,11,3,15,0.00
2013-6-16,82,74,64,70,65,61,94,77,59,0.00,40.00,13,6,19,4.53
2013-6-17,88,77,68,70,65,54,94,71,37,0.00,40.00,6,2,8,0.00
2013-6-18,80,73,65,66,61,55,90,70,47,0.00,40.00,10,4,14,0.00
2013-6-19,80,69,58,61,52,45,89,60,32,0.00,40.00,7,3,14,0.00
2013-6-20,86,69,56,63,54,50,89,63,37,0.00,40.00,5,2,8,0.00
2013-6-22,92,86,73,70,68,66,82,58,46,0.00,40.00,16,7,21,0.00
2013-6-26,81,74,69,70,68,66,97,84,67,0.00,40.00,6,2,21,0.00
2013-6-27,87,77,70,72,69,68,97,81,56,0.00,40.00,11,4,15,0.00
2013-6-28,82,72,66,68,63,57,97,80,47,0.00,40.00,9,2,14,0.00
2013-6-29,78,68,65,64,63,61,95,90,63,0.00,40.00,4,1,14,0.00
2013-6-30,71,67,66,64,63,61,95,92,75,0.00,40.00,7,2,14,0.00
2013-7-1,69,67,65,63,62,61,93,85,82,0.00,40.00,11,8,15,0.00
2013-7-2,83,79,69,68,65,64,90,66,59,0.00,40.00,4,2,15,0.00
2013-7-3,80,74,64,68,65,61,97,77,59,0.00,40.00,9,4,12,0.00
2013-7-4,73,69,65,68,66,63,95,93,86,0.00,40.00,2,1,4,0.00
2013-7-5,83,76,69,68,67,66,94,79,64,0.00,40.00,6,2,8,0.00
2013-7-6,75,72,70,70,68,66,95,90,85,0.00,40.00,3,2,6,0.00
2013-7-7,80,70,66,70,66,63,95,92,67,0.00,40.00,6,2,8,0.00
2013-7-8,83,74,69,75,66,-100,95,87,71,0.00,40.00,6,2,12,0.00
2013-7-9,89,86,74,75,73,72,93,70,60,0.00,40.00,8,6,14,0.00
2013-7-10,84,70,74,75,51,-100,93,72,75,0.00,40.00,7,5,34,0.00
2013-7-11,78,70,64,64,59,55,89,74,47,0.00,40.00,8,1,14,0.00
2013-7-12,81,71,61,61,59,57,95,70,49,0.00,40.00,6,2,10,0.00
2013-7-14,89,84,71,73,70,66,88,67,56,0.00,40.00,4,2,8,0.00
2013-7-15,92,83,74,77,73,70,93,75,49,0.00,40.00,4,1,8,0.00
2013-7-16,94,87,72,75,71,68,94,64,44,0.00,40.00,2,1,4,0.00
2013-7-17,91,81,72,75,72,70,95,79,53,0.00,40.00,2,1,6,0.00
2013-7-18,89,76,71,77,71,68,93,87,68,0.00,40.00,1,0,2,0.00
2013-7-19,92,82,75,73,72,70,90,76,54,0.00,40.00,8,4,12,0.00
2013-7-20,83,76,73,73,67,-100,98,81,69,0.00,40.00,6,4,12,2.83
2013-7-29,76,66,55,59,54,52,94,72,49,0.00,40.00,6,3,12,0.00
2013-7-30,81,64,54,63,56,52,95,83,42,0.00,40.00,2,0,4,0.00
2013-7-31,73,71,70,68,65,63,95,85,80,0.00,40.00,5,3,8,0.00
2013-8-1,79,68,62,66,62,59,95,86,55,0.00,40.00,6,2,12,0.00
2013-8-2,82,70,57,64,60,54,94,77,54,0.00,40.00,9,2,15,0.00
2013-8-3,72,68,65,66,63,61,97,88,72,0.00,40.00,2,1,8,0.00
2013-8-4,78,70,57,59,56,52,89,64,41,0.00,40.00,3,1,8,0.00
2013-8-5,77,62,56,63,56,54,95,87,49,0.00,40.00,5,1,6,0.00
2013-8-6,81,73,62,68,63,59,93,75,64,0.00,40.00,6,3,8,0.00
2013-8-7,84,77,69,72,70,66,94,82,67,0.00,40.00,6,3,10,0.00
2013-10-5,77,72,69,68,67,66,94,88,75,0.00,40.00,4,3,6,0.00
2013-10-6,68,67,64,64,63,61,95,94,93,0.00,40.00,6,4,21,1.14
2013-10-7,60,53,45,46,44,41,94,78,60,0.00,40.00,11,4,14,0.00
2013-10-8,68,56,43,45,43,41,97,71,45,0.00,40.00,4,2,6,0.00
2013-10-9,75,53,41,48,42,39,95,75,32,0.00,40.00,2,1,8,0.00
2013-10-11,78,70,55,45,44,41,72,44,28,0.00,40.00,2,1,8,0.00
2013-12-8,26,24,19,25,19,14,88,77,72,0.00,40.00,11,9,14,0.00
2013-12-9,32,25,21,32,20,16,95,79,76,0.00,40.00,14,8,17,0.00
2013-12-10,26,21,13,16,12,7,75,64,55,0.00,40.00,16,10,22,0.00
2013-12-11,28,21,13,21,15,10,84,77,67,0.00,40.00,9,4,14,2.83
2013-12-12,19,13,3,10,6,0,86,70,51,0.00,40.00,6,4,17,0.00
2013-12-13,33,30,18,25,21,3,77,65,50,0.00,40.00,6,4,17,0.00
2013-12-14,34,30,25,32,25,-100,98,93,93,0.00,40.00,7,4,17,2.28
2013-12-31,24,21,19,16,14,12,77,72,67,0.00,40.00,13,10,17,0.00
2014-1-1,24,23,21,21,20,18,89,85,82,0.00,40.00,7,4,12,0.00
2014-1-2,22,16,6,21,13,1,93,85,73,0.00,40.00,9,6,17,11.34